TimeCST,TemperatureF,Dew PointF,Humidity,Sea Level PressureIn,VisibilityMPH,Wind Direction,Wind SpeedMPH,Gust SpeedMPH,PrecipitationIn,Events,Conditions,WindDirDegrees,DateUTC
12:53 AM,33.1,33.1,100,30.11,2.5,NNE,5.8,-,0.00,Rain,Light Rain,20,2013-01-01 06:53:00
1:53 AM,33.1,33.1,100,30.09,2.5,NNE,10.4,-,0.00,Rain,Light Rain,30,2013-01-01 07:53:00
2:41 AM,30.2,30.2,100,30.08,1.8,NNE,10.4,-,0.00,Rain,Freezing Rain,30,2013-01-01 08:41:00
2:53 AM,30.0,30.0,100,30.12,1.8,North,9.2,-,0.00,Rain,Freezing Rain,10,2013-01-01 08:53:00
3:02 AM,30.2,30.2,100,30.10,2.0,North,11.5,-,0.00,Rain,Freezing Rain,10,2013-01-01 09:02:00
3:28 AM,28.4,28.4,100,30.09,3.0,NNE,12.7,19.6,0.00,Rain,Freezing Rain,20,2013-01-01 09:28:00
3:53 AM,28.9,28.0,96,30.11,5.0,NNE,11.5,-,0.00,Rain,Freezing Rain,30,2013-01-01 09:53:00
4:53 AM,28.0,27.0,96,30.14,5.0,NNE,5.8,-,0.00,Rain,Freezing Rain,20,2013-01-01 10:53:00
5:53 AM,27.0,26.1,96,30.18,5.0,North,8.1,-,0.00,,Overcast,10,2013-01-01 11:53:00
6:53 AM,27.0,25.0,92,30.19,5.0,North,5.8,-,N/A,,Overcast,10,2013-01-01 12:53:00
7:53 AM,26.1,24.1,92,30.21,6.0,North,10.4,-,N/A,,Overcast,10,2013-01-01 13:53:00
8:53 AM,25.0,21.9,88,30.22,8.0,NNE,10.4,-,N/A,,Overcast,30,2013-01-01 14:53:00
9:53 AM,25.0,21.9,88,30.25,7.0,North,10.4,-,N/A,,Overcast,10,2013-01-01 15:53:00
10:53 AM,26.1,21.9,84,30.27,7.0,NNE,8.1,-,N/A,,Overcast,20,2013-01-01 16:53:00
11:53 AM,25.0,21.9,88,30.26,7.0,North,10.4,-,N/A,,Overcast,360,2013-01-01 17:53:00
12:53 PM,26.1,21.9,84,30.25,7.0,North,11.5,-,N/A,,Overcast,350,2013-01-01 18:53:00
1:53 PM,26.1,21.9,84,30.25,8.0,North,9.2,-,N/A,,Overcast,360,2013-01-01 19:53:00
2:53 PM,26.1,21.9,84,30.26,7.0,North,8.1,-,N/A,,Overcast,360,2013-01-01 20:53:00
3:53 PM,25.0,21.0,85,30.27,9.0,North,10.4,-,0.00,,Overcast,360,2013-01-01 21:53:00
4:12 PM,24.8,19.4,80,30.24,10.0,North,8.1,-,N/A,,Overcast,10,2013-01-01 22:12:00
4:53 PM,24.1,18.0,77,30.27,10.0,NNE,6.9,-,N/A,,Mostly Cloudy,20,2013-01-01 22:53:00
5:53 PM,21.0,17.1,85,30.29,10.0,North,5.8,-,N/A,,Clear,360,2013-01-01 23:53:00
6:53 PM,21.0,17.1,85,30.30,10.0,Calm,Calm,-,N/A,,Clear,0,2013-01-02 00:53:00
7:53 PM,19.0,16.0,88,30.31,10.0,North,5.8,-,N/A,,Clear,350,2013-01-02 01:53:00
8:53 PM,19.0,16.0,88,30.30,10.0,North,3.5,-,N/A,,Clear,10,2013-01-02 02:53:00
9:53 PM,18.0,15.1,88,30.30,9.0,Calm,Calm,-,N/A,,Clear,0,2013-01-02 03:53:00
10:53 PM,16.0,14.0,92,30.30,8.0,Calm,Calm,-,N/A,,Clear,0,2013-01-02 04:53:00
11:53 PM,16.0,12.9,88,30.29,8.0,Calm,Calm,-,N/A,,Clear,0,2013-01-02 05:53:00